TimeMST,TemperatureF,Dew PointF,Humidity,Sea Level PressureIn,VisibilityMPH,Wind Direction,Wind SpeedMPH,Gust SpeedMPH,PrecipitationIn,Events,Conditions,WindDirDegrees,DateUTC
12:56 AM,17.1,14.0,88,30.03,10.0,South,12.7,-,N/A,,Overcast,170,2013-02-22 07:56:00
1:56 AM,17.1,14.0,88,30.02,10.0,South,10.4,-,N/A,,Overcast,180,2013-02-22 08:56:00
2:56 AM,16.0,12.9,88,30.01,10.0,South,9.2,-,N/A,,Mostly Cloudy,190,2013-02-22 09:56:00
3:56 AM,17.1,12.9,84,30.00,10.0,South,8.1,-,N/A,,Overcast,180,2013-02-22 10:56:00
4:56 AM,18.0,14.0,84,30.01,10.0,SSE,8.1,-,N/A,,Overcast,160,2013-02-22 11:56:00
5:56 AM,18.0,15.1,88,30.01,7.0,South,8.1,-,0.00,Snow,Light Snow,180,2013-02-22 12:56:00
6:56 AM,18.0,14.0,84,30.00,10.0,South,9.2,-,0.00,,Overcast,180,2013-02-22 13:56:00
7:56 AM,19.0,15.1,85,30.00,10.0,SSW,6.9,-,N/A,,Overcast,200,2013-02-22 14:56:00
8:56 AM,21.0,16.0,81,29.99,10.0,South,6.9,-,N/A,,Partly Cloudy,190,2013-02-22 15:56:00
9:56 AM,26.1,19.0,75,29.97,10.0,SSW,8.1,-,N/A,,Clear,200,2013-02-22 16:56:00
10:56 AM,30.0,21.9,72,29.96,10.0,SSW,8.1,-,N/A,,Clear,200,2013-02-22 17:56:00
11:56 AM,32.0,23.0,69,29.94,10.0,SSW,8.1,-,N/A,,Partly Cloudy,200,2013-02-22 18:56:00
12:56 PM,35.1,24.1,64,29.90,10.0,SW,8.1,-,N/A,,Clear,220,2013-02-22 19:56:00
1:56 PM,36.0,24.1,62,29.87,10.0,SSW,5.8,-,N/A,,Clear,210,2013-02-22 20:56:00
2:56 PM,37.0,25.0,62,29.85,10.0,SSW,5.8,-,N/A,,Clear,210,2013-02-22 21:56:00
3:56 PM,37.0,21.9,54,29.85,10.0,WSW,4.6,-,N/A,,Clear,250,2013-02-22 22:56:00
4:56 PM,35.1,23.0,61,29.84,10.0,WSW,3.5,-,N/A,,Clear,250,2013-02-22 23:56:00
5:56 PM,28.0,21.0,75,29.86,10.0,South,3.5,-,N/A,,Clear,190,2013-02-23 00:56:00
6:56 PM,26.1,21.9,84,29.86,10.0,SSE,9.2,-,N/A,,Clear,160,2013-02-23 01:56:00
7:56 PM,24.1,21.0,88,29.85,10.0,South,9.2,-,N/A,,Clear,170,2013-02-23 02:56:00
8:56 PM,23.0,19.9,88,29.83,10.0,South,9.2,-,N/A,,Clear,180,2013-02-23 03:56:00
9:56 PM,21.0,18.0,88,29.81,10.0,South,9.2,-,N/A,,Clear,170,2013-02-23 04:56:00
10:56 PM,21.0,18.0,88,29.78,10.0,South,10.4,-,N/A,,Clear,180,2013-02-23 05:56:00